Location: Hamilton
(37.7830°S, 175.2830°E)
Time: 12:29:31
(UTC+13:00)

Daily predictions for brighter satellites

Satellite Brightness Start Highest point End
(mag) Time Altitude Azimuth Time Altitude Azimuth Time Altitude Azimuth
Cosmos 968 Rocket 3.5 19:57:44 10° N 20:02:54 77° ENE 20:08:06 10° SSE
CORIOLIS 4.4 19:59:17 10° S 20:04:45 78° WSW 20:10:06 10° NNW
Cosmos 220 Rocket 4.0 20:02:28 10° SSW 20:06:54 73° ESE 20:11:11 10° NNE
Cosmos 2369 Rocket 4.0 20:02:36 10° SW 20:07:44 34° WNW 20:12:49 10° NNW
Meteor 1-11 4.3 20:05:44 10° N 20:11:28 62° E 20:17:12 10° SSE
ISS -2.9 20:09:30 10° WNW 20:12:49 54° SW 20:16:11 10° SE
Cosmos 2123 Rocket 4.1 20:06:59 10° S 20:13:25 86° E 20:19:46 10° N
Cosmos 1455 2.2 20:09:32 10° S 20:13:29 87° E 20:17:22 10° N
Cosmos 1656 Rocket 4.0 20:10:45 10° SSW 20:16:28 72° WNW 20:22:08 10° NNE
YAOGAN 6 2.6 20:14:16 10° SSE 20:18:02 66° E 20:21:45 10° N
Okean-O 3.4 20:14:15 10° S 20:18:41 59° WSW 20:23:04 10° NNW
Aureole 2 Rocket 2.4 20:17:00 10° S 20:19:36 37° ESE 20:22:08 10° NE
NOAA 12 4.4 20:14:54 10° S 20:20:12 77° WSW 20:25:27 10° NNW
Cosmos 1703 3.9 20:19:29 10° NNW 20:23:21 61° W 20:27:17 10° S
EO 1 Delta rocket 4.5 20:16:22 10° S 20:23:23 81° E 20:28:48 10° N
CZ-4 R/B 4.4 20:22:35 10° SSE 20:26:49 81° ENE 20:30:58 10° N
Cosmos 1354 Rocket 4.4 20:23:25 10° NNW 20:28:41 71° WSW 20:34:04 10° SSE
Cosmos 1605 Rocket 4.1 20:25:54 10° N 20:32:02 82° W 20:38:19 10° S
Cosmos 1833 Rocket 4.2 20:29:00 10° NE 20:32:11 15° E 20:35:23 10° ESE
Envisat 3.6 20:32:13 10° S 20:37:20 64° WSW 20:42:22 10° NNW
Cosmos 1867 4.0 20:32:21 10° SSW 20:37:35 47° SE 20:41:44 16° NE
Cosmos 1340 Rocket 3.4 20:33:51 10° SSW 20:37:49 59° W 20:41:42 10° N
H-2A R/B 4.0 20:42:12 10° ESE 20:42:25 10° ESE 20:42:25 10° ESE
Cosmos 2173 Rocket 4.2 20:43:37 10° NNE 20:49:26 49° E 20:55:20 10° SSE
Cosmos 1777 Rocket 4.1 20:44:39 10° N 20:49:42 51° ENE 20:54:49 10° SSE
CZ-2D R/B 3.2 20:48:23 10° SSE 20:52:15 66° E 20:56:04 10° N
Cosmos 1939 Rocket 2.8 20:50:16 10° SSE 20:54:10 61° E 20:58:02 10° N
YAOGAN 1 3.0 20:51:59 10° S 20:56:21 67° WSW 21:00:40 10° NNW
CZ-4C R/B 3.0 20:48:51 10° NNW 20:57:07 85° ENE 21:04:25 10° SE
Cosmos 1802 Rocket 4.2 20:53:54 10° NNE 20:59:53 49° E 21:05:51 10° SSE
Cosmos 1869 3.6 21:00:02 10° S 21:04:00 49° E 21:05:39 30° NE
Cosmos 2082 Rocket 3.6 21:05:23 19° E 21:05:23 19° E 21:08:09 10° SE
CSL-04 Rocket 4.0 20:59:09 10° S 21:04:44 72° WSW 21:10:16 10° NNW
Centaur AC-112 4.2 21:04:35 10° WNW 21:07:09 14° NNW 21:08:07 13° N
GPS 2-04 Rocket1 2.6 21:04:47 10° WNW 21:08:12 53° N 21:09:00 42° NE
DELTA 2 R/B (1) 3.7 21:02:49 10° W 21:08:29 75° S 21:12:30 20° ESE
Haruka 4.3 20:54:41 10° W 21:08:30 44° NNW 21:11:13 24° NNE
Cosmos 1766 Rocket 4.2 21:09:15 32° ENE 21:10:15 36° E 21:14:24 10° SSE
Cosmos 2221 3.3 21:06:50 10° SSW 21:11:08 53° W 21:15:19 10° N
Cosmos 1892 3.3 21:11:34 35° E 21:11:34 35° E 21:15:06 10° SSE
PSLV R/B 2.8 21:09:02 10° WSW 21:11:38 60° NNW 21:11:38 60° NNW
Cosmos 1725 Rocket 4.5 21:09:16 22° NE 21:12:52 40° E 21:18:43 10° SSE
DMSP B5D2-2 4.4 21:11:44 10° N 21:16:56 68° WNW 21:22:12 10° SSW
Cosmos 1076 Rocket 4.1 21:13:22 10° NNW 21:17:35 56° W 21:21:51 10° S
Cosmos 2100 Rocket 4.0 21:11:31 10° N 21:17:42 89° W 21:24:02 10° S
BREEZE-M DEB (TANK) 4.4 21:17:33 10° S 21:18:13 11° SSE 21:18:59 10° SSE
Ariane Rocket 2.9 21:14:49 10° SSE 21:19:58 79° ENE 21:25:05 10° N
Lacrosse 5 rocket 3.5 21:15:59 10° N 21:16:52 15° N 21:16:52 15° N
ATLAS CENTAUR R/B 4.4 21:04:11 10° NW 21:20:51 65° SW 21:26:42 10° SSE
USA 229 DEB 3.6 21:14:50 10° SSW 21:21:43 86° ESE 21:25:18 29° NE
USA 229 3.6 21:14:52 10° SSW 21:21:46 84° SE 21:25:22 30° NE
Okean 3 Rocket 3.5 21:19:49 25° N 21:22:17 68° E 21:26:43 10° SSE
COSMOS 2406 3.2 21:16:40 10° NNW 21:22:22 83° WSW 21:28:07 10° SSE
Cosmos 1697 Rocket 3.9 21:18:00 10° S 21:22:37 24° ESE 21:23:50 23° ESE
Cosmos 2058 3.2 21:19:13 10° NNW 21:23:22 69° W 21:27:33 10° S
NOAA 11 4.4 21:18:18 10° S 21:23:52 76° WSW 21:29:21 10° NNW
MOS 1 Rocket 4.0 21:24:44 35° E 21:25:26 37° ESE 21:30:04 10° S
CZ-4 R/B 4.1 21:22:58 10° SSW 21:25:59 21° WSW 21:29:00 10° WNW
In-Cosmos 22 Rocket 4.2 21:21:31 10° N 21:27:17 78° E 21:33:12 10° SSE
NOSS 3-1 (A) 3.6 21:21:43 10° SSW 21:27:52 54° SE 21:29:46 37° ENE
FREGAT/IRIS 3.6 21:25:19 10° SSE 21:27:07 34° SSE 21:27:07 34° SSE
Meteor 2-20 Rocket 4.5 21:23:12 10° S 21:29:24 83° W 21:34:00 19° N
USA 215 3.4 21:26:35 10° SE 21:32:57 49° NE 21:39:16 10° NNW
USA 186 2.7 21:29:38 10° SSE 21:32:00 39° SE 21:32:00 39° SE
Cosmos 2016 Rocket 3.9 21:28:24 11° N 21:34:34 79° E 21:40:59 10° S
Cosmos 2151 2.8 21:36:43 54° N 21:37:40 79° E 21:42:00 10° S
CZ-2C R/B 4.5 21:35:45 10° SE 21:38:40 24° ESE 21:38:40 24° ESE
MOS 1 4.2 21:35:27 10° SSE 21:41:14 75° ENE 21:44:50 24° N
CZ-2C R/B 2.9 21:39:24 25° N 21:42:26 64° W 21:47:38 10° SSW
NOSS 3-1 (C) 3.3 21:36:16 10° SW 21:42:26 76° WNW 21:44:19 43° NNE
SJ-6B 3.3 21:38:29 10° SSE 21:41:47 48° SE 21:41:47 48° SE
SL-08 R/B 4.4 21:38:54 24° N 21:42:48 77° E 21:49:08 10° S
Atlas 2A Centaur Rocket 4.1 21:15:43 10° WNW 21:44:18 46° NNW 21:46:52 36° NNE
EXPRESS MD2 4.4 21:41:39 10° WSW 21:44:58 42° NW 21:45:50 38° N
ISS -0.6 21:48:34 10° SW 21:50:11 13° SSW 21:51:48 10° S
BREEZE-M R/B 4.4 21:41:59 10° WSW 21:51:09 42° SSE 21:51:48 39° SE
Cosmos 1656 3.6 21:49:57 10° SSW 21:55:42 77° ESE 21:56:36 63° NE
Cosmos 1356 Rocket 4.1 21:56:34 10° SSW 22:00:35 47° W 22:00:59 45° WNW
Cosmos 2278 4.2 22:00:39 10° S 22:05:57 43° ESE 22:05:57 43° ESE
SPOT 3 Rocket 3.4 22:02:29 10° SSE 22:07:44 83° ENE 22:07:46 83° ENE
NOSS 2-3 (C) 4.1 22:05:42 10° SSW 22:12:20 79° ESE 22:12:32 78° E
Cosmos 1980 Rocket 3.2 22:10:11 10° S 22:14:45 34° SE 22:14:45 34° SE
Cosmos 1833 Rocket 3.0 22:09:51 10° NNW 22:15:27 65° WSW 22:21:08 10° SSE
Resurs 01 Rocket 3.6 22:12:42 10° SSE 22:14:09 19° SSE 22:14:09 19° SSE
Cosmos 1680 Rocket 3.9 22:15:37 10° SSW 22:20:09 57° SSE 22:20:09 57° SSE
H-2A R/B 2.1 22:18:15 10° S 22:23:03 73° SW 22:23:03 73° SW
SJ 16-02 3.8 22:27:05 13° SSE 22:27:05 13° SSE 22:27:39 10° SSE
Tsikada Rocket 4.0 22:19:38 10° S 22:25:51 72° W 22:26:44 63° NW
Mayak 1.1 22:30:32 17° SSE 22:30:32 17° SSE 22:31:49 10° S
Meteor 2-3 Rocket 4.4 22:30:36 47° SE 22:30:36 47° SE 22:34:49 10° SSE
Cosmos 1151 Rocket 4.4 22:30:49 10° SSW 22:33:49 38° SW 22:33:49 38° SW
Cosmos 923 Rocket 4.4 22:29:50 10° SSW 22:34:36 64° WSW 22:34:36 64° WSW
ATLAS CENTAUR Rocket 3.8 22:04:47 10° W 22:37:54 51° NNW 22:38:38 50° N
Thor Agena Rocket 4.4 22:45:27 45° WSW 22:45:27 45° WSW 22:49:46 10° SSW
Cosmos 2082 Rocket 2.9 22:47:05 48° W 22:47:48 51° WSW 22:53:19 10° SSE
ARGOS 4.0 22:47:30 10° S 22:52:40 46° WSW 22:52:58 45° W
Lacrosse 4 Rocket 3.4 22:48:35 10° SSW 22:50:47 28° SSW 22:50:47 28° SSW
Cosmos 1697 Rocket 3.8 23:01:21 10° SW 23:05:35 40° WSW 23:05:35 40° WSW
USA 215 4.1 23:09:36 10° SE 23:15:52 48° SW 23:22:06 10° WNW
SL-16 R/B 3.8 23:12:58 10° S 23:16:05 27° SSE 23:16:05 27° SSE
Cosmos 2322 Rocket 3.9 23:40:44 10° SSW 23:43:34 28° S 23:43:34 28° S
USA 267 3.9 23:49:25 50° SSW 23:49:25 50° SSW 23:54:25 10° SW
Cosmos 2360 Rocket 4.2 23:48:41 10° S 23:51:06 21° SSE 23:51:06 21° SSE
